Theta_e
351 350 350 352 352 352 353 352 352 352 357 354 351 355 349 348 354 353 352 347 347 345 343 343 340 340 344 345 345 345 344 346 344 342 342 339 337 338 337 336 337 336 338 340 340 340 339 339 339 339 341 342 343 343 343 343 342 342 343 344 343 343 343 343 343 343 343 342 342 343 344 343 340 338 335 336 341 343 344 344 344 343 343 343 343 343 341 341 341 342 343 343 341 342 342 341 342
350 350 350 351 352 353 352 351 355 356 355 350 349 354 348 348 355 355 353 348 348 345 343 342 340 342 344 342 342 344 344 344 342 340 341 338 338 339 338 337 338 338 339 340 341 340 340 340 339 340 340 340 342 343 343 343 342 342 343 344 342 342 342 343 343 342 342 342 343 344 344 342 339 337 335 338 343 344 344 344 344 344 344 343 342 343 342 342 342 342 343 342 341 341 342 341 342
347 347 349 351 352 353 353 353 354 353 352 350 348 352 349 352 356 353 349 346 346 343 343 342 342 344 342 345 345 345 345 344 342 340 340 339 338 339 338 339 338 338 339 341 341 339 338 338 338 338 338 339 341 343 343 343 343 342 342 343 342 342 342 343 343 343 342 343 344 344 343 340 338 336 336 341 344 344 344 344 344 344 344 343 343 343 343 342 342 342 343 342 341 342 341 341 341
346 348 349 350 352 353 357 360 360 356 350 350 348 350 352 354 355 350 345 344 344 343 343 342 345 345 343 349 347 345 346 343 341 338 340 339 338 338 339 339 338 338 339 341 339 336 336 336 336 337 339 341 343 343 343 343 343 342 342 343 343 343 342 342 344 343 342 344 344 344 343 340 338 335 338 342 343 344 344 344 344 344 344 343 343 344 343 343 343 343 342 342 342 341 341 341 341
349 351 351 352 354 354 358 361 363 358 350 353 351 351 352 350 352 349 345 344 344 344 343 344 346 344 344 347 345 346 346 342 339 337 338 339 337 338 338 338 338 337 339 339 337 336 338 339 339 341 342 344 344 343 342 342 342 341 343 344 343 343 343 343 344 344 343 344 344 345 343 341 339 336 339 342 343 343 343 344 344 343 343 342 343 343 343 343 344 343 342 342 342 341 340 341 341
351 352 352 353 353 353 359 357 356 356 352 357 354 351 350 346 348 346 344 345 344 344 344 345 345 344 345 344 344 345 344 341 339 338 337 338 338 337 337 337 336 335 336 338 338 338 340 342 342 343 344 344 343 343 341 341 342 342 343 344 342 342 342 343 344 344 344 344 345 345 343 342 341 338 339 342 343 344 343 343 343 343 343 342 343 343 343 344 343 342 342 342 341 341 341 341 342
351 353 352 354 353 353 361 357 355 358 351 353 352 350 349 345 345 345 345 346 345 345 344 345 343 345 347 344 345 344 343 341 338 338 337 337 337 337 337 336 334 334 337 339 339 339 342 343 344 344 343 343 341 341 341 341 342 342 343 343 342 342 341 343 343 344 345 344 345 344 343 342 342 340 340 342 342 343 343 344 344 343 343 342 342 342 343 343 342 342 342 341 341 341 342 342 342
351 352 352 356 358 357 362 359 358 360 353 352 351 347 347 345 343 346 348 345 346 346 344 344 342 348 349 344 346 345 343 340 338 338 338 337 337 337 337 333 330 335 339 340 340 341 344 344 344 344 342 342 341 341 341 341 342 343 344 341 341 343 341 342 344 344 343 342 344 343 342 343 343 341 341 342 342 342 343 343 343 343 342 342 342 342 343 343 342 342 342 341 341 342 343 342 342
351 352 352 357 362 361 360 359 358 359 358 355 351 346 344 344 343 346 349 346 345 344 344 344 342 348 348 345 347 346 342 340 339 339 338 337 337 335 332 328 329 336 340 340 341 342 344 343 343 344 343 343 342 342 341 340 341 343 343 338 339 343 342 343 343 343 340 341 344 342 342 343 343 343 341 341 341 342 342 342 343 343 342 342 342 342 342 342 342 342 341 340 341 342 343 343 342
351 351 352 359 362 358 356 357 357 357 359 354 350 347 344 343 343 345 347 347 345 344 345 344 343 347 347 346 348 345 343 341 338 339 338 336 334 330 327 328 334 338 340 340 341 342 343 342 343 343 342 342 342 343 342 341 343 344 343 339 339 342 342 343 343 343 340 341 343 342 342 342 343 343 341 341 341 341 341 342 343 342 342 342 343 343 342 341 342 342 341 341 341 341 341 343 343
352 349 351 360 359 354 353 356 357 356 357 352 347 345 344 343 344 344 345 346 345 345 345 344 346 346 346 347 347 344 341 339 337 337 335 332 329 328 329 335 339 340 340 340 340 340 341 342 341 341 341 342 342 343 342 342 343 343 343 341 340 341 343 343 343 342 340 341 342 341 342 342 343 342 342 341 342 341 341 342 343 343 342 342 343 342 342 341 342 341 341 341 341 341 341 342 342
354 352 355 362 358 356 356 356 358 355 354 351 348 346 344 343 345 346 345 347 345 345 344 344 346 345 347 348 347 343 339 337 335 332 331 330 329 331 335 339 340 340 340 340 339 339 341 341 340 341 341 342 342 342 342 342 343 343 343 342 342 342 343 344 344 342 339 341 341 341 342 342 342 342 342 342 342 342 342 343 343 343 343 342 342 342 341 340 341 341 341 341 341 342 342 342 342
353 352 359 362 357 360 359 357 358 355 352 350 350 347 344 343 345 345 345 345 345 346 346 344 344 345 348 349 346 342 338 336 333 332 333 334 336 336 337 339 340 340 340 340 338 338 341 341 341 342 342 343 342 341 342 342 342 343 343 343 343 342 343 345 344 342 339 340 341 341 341 341 341 341 342 342 342 342 342 343 343 342 342 342 341 341 339 338 338 338 340 341 341 342 342 343 341
351 350 357 360 357 360 359 358 356 352 351 352 350 345 344 344 344 344 345 347 345 346 346 344 344 346 348 348 346 343 343 341 339 340 340 341 343 342 339 339 341 340 340 340 338 340 342 342 342 342 343 343 342 341 342 342 342 343 343 343 343 343 344 345 344 344 340 339 341 341 341 340 340 341 341 342 342 342 342 342 342 342 341 341 339 337 336 335 335 335 338 339 340 341 342 343 339
350 348 356 361 358 358 358 359 355 351 352 352 348 343 344 344 344 344 344 348 347 345 346 345 344 346 348 348 346 345 346 345 344 344 344 345 345 344 341 339 341 340 340 340 340 341 342 342 342 342 343 343 342 342 342 342 342 342 343 343 343 344 344 344 344 344 341 340 341 341 342 341 340 340 341 343 343 342 341 342 342 342 341 339 337 335 334 334 333 335 336 336 337 340 342 342 338
350 349 358 361 356 356 357 359 357 353 353 353 348 344 346 344 344 345 343 346 346 345 345 345 344 343 346 346 346 346 347 346 345 346 346 346 345 344 341 339 341 340 340 341 341 342 341 341 342 343 343 343 342 342 343 343 342 342 342 343 343 343 344 344 344 344 342 341 341 341 342 342 341 341 342 343 343 342 341 341 342 341 339 336 335 333 333 332 332 333 333 335 338 340 342 341 337
350 352 360 358 355 357 358 359 357 353 354 353 347 343 347 346 344 345 344 345 345 345 345 345 345 343 345 345 345 346 347 346 346 347 346 345 343 341 340 340 341 340 341 341 341 342 341 340 341 343 343 343 343 342 343 343 343 342 342 342 343 343 344 343 343 343 343 342 341 341 342 342 341 341 342 341 341 342 341 342 341 338 335 332 332 331 331 330 330 331 334 337 339 340 341 340 337
351 356 360 355 358 360 358 360 357 354 354 351 346 343 346 348 345 344 345 345 344 345 345 345 345 345 346 345 345 346 346 346 347 346 345 343 340 339 339 340 340 340 341 342 341 340 341 340 341 342 342 342 342 343 343 343 343 343 342 343 343 343 344 343 343 344 343 343 342 340 340 341 341 341 341 340 340 341 341 341 338 334 331 330 330 328 328 329 332 335 338 339 339 337 338 338 338
352 356 359 360 360 358 353 355 357 357 356 351 346 343 345 347 345 344 346 345 345 346 346 346 346 346 347 346 346 347 346 347 347 345 342 339 338 338 339 340 339 341 341 341 340 340 341 340 341 342 342 342 342 343 343 343 343 343 343 343 343 343 343 343 343 343 342 343 342 339 339 340 340 340 339 339 339 340 340 338 334 331 330 329 327 327 329 333 336 338 339 339 338 337 336 337 338
353 354 362 364 357 355 351 351 355 357 356 351 346 344 345 345 344 344 345 344 345 346 347 347 347 347 347 348 347 347 347 347 347 343 339 337 338 338 338 339 340 341 341 340 340 341 342 341 341 342 342 343 343 343 343 343 342 342 343 342 343 343 343 343 342 342 342 342 341 340 339 338 338 339 339 339 339 337 335 332 330 329 329 328 327 328 332 336 337 338 338 338 338 337 337 338 338
353 354 361 359 351 355 355 350 354 355 353 351 348 347 346 344 344 343 343 346 347 345 346 346 346 347 347 348 347 347 346 347 346 341 339 339 339 339 338 339 340 341 341 341 341 341 342 341 341 341 342 343 344 343 343 343 342 342 342 342 343 343 342 342 341 342 341 341 340 340 338 336 337 339 339 339 338 335 331 330 329 329 329 328 327 330 334 336 337 338 338 338 338 339 338 339 339
353 354 355 354 350 355 356 350 353 354 352 350 349 350 348 346 344 342 344 349 348 344 346 345 344 346 346 347 347 346 346 347 345 341 340 340 339 339 339 339 340 341 342 342 341 341 341 341 341 341 342 343 343 343 343 343 342 341 341 341 342 342 341 341 340 340 340 339 339 339 337 336 337 338 338 338 337 334 332 330 329 329 329 328 328 331 334 337 339 339 339 339 340 340 340 340 339
356 356 352 352 350 351 354 351 353 353 350 349 350 351 349 346 343 342 343 344 344 344 346 344 345 345 344 346 346 346 346 347 344 342 342 340 340 341 339 338 339 342 343 342 341 341 340 340 341 341 342 343 343 343 343 343 342 342 341 340 340 340 341 340 340 339 339 338 338 337 336 336 337 337 337 337 336 334 331 329 329 328 328 329 330 333 337 339 340 340 340 340 341 341 341 340 340
357 357 351 351 350 350 352 351 352 352 349 349 350 349 348 347 345 343 341 340 342 345 345 345 346 346 346 346 346 346 347 346 345 344 343 342 341 341 339 337 339 342 343 342 341 341 340 339 340 340 341 342 343 343 343 342 342 342 341 340 340 340 340 340 339 338 337 337 336 336 336 336 335 335 336 336 334 332 330 331 332 331 330 332 335 337 339 340 341 341 341 341 341 341 341 340 340
356 355 350 349 350 351 351 352 352 350 349 348 348 348 346 349 346 341 341 341 343 346 346 346 346 346 346 346 346 346 346 346 346 345 344 343 343 342 340 338 338 341 342 341 341 341 340 339 339 339 340 341 342 342 341 341 341 341 341 340 341 340 340 339 338 337 336 337 337 336 336 335 334 334 335 335 333 332 334 337 339 337 335 335 337 339 340 340 341 341 341 341 341 341 341 340 340
355 352 350 350 350 351 352 352 351 349 348 348 351 350 346 348 346 341 341 342 344 346 346 346 347 346 346 346 346 346 346 346 346 345 344 344 343 342 340 338 338 339 341 341 341 341 340 338 339 339 340 341 341 341 340 339 339 339 340 339 340 339 339 339 338 337 338 338 337 336 335 334 334 334 335 334 334 335 338 340 340 340 339 339 339 340 340 340 341 341 341 341 341 341 340 340 340
351 349 350 350 350 351 352 351 349 349 348 347 353 354 347 346 346 344 342 343 345 346 346 347 346 347 346 346 346 346 346 346 346 345 345 345 344 343 341 338 338 338 340 341 341 340 339 338 338 338 339 340 340 340 339 338 338 338 338 339 339 339 339 339 338 338 338 337 336 335 335 334 334 335 335 336 337 339 340 340 340 340 340 340 340 340 340 340 340 340 341 341 341 341 340 340 341
349 349 350 349 349 350 350 350 348 350 351 347 349 352 347 346 346 345 343 344 346 345 346 347 347 347 346 346 346 346 346 346 346 345 345 345 344 344 341 338 338 338 338 340 340 339 339 338 338 338 338 339 339 339 339 338 337 338 338 339 338 338 338 338 337 337 337 336 335 335 335 335 335 336 337 338 339 339 339 339 339 340 340 341 341 341 341 340 340 340 341 341 342 342 342 341 342
349 349 351 349 349 349 349 350 350 351 353 347 346 350 352 352 348 343 343 345 346 345 346 346 347 347 347 346 346 346 346 346 346 345 345 345 345 344 342 339 338 337 337 340 339 339 339 338 337 337 337 337 338 338 339 338 337 337 338 338 337 337 337 336 336 336 335 335 336 336 337 337 336 337 338 339 339 339 339 339 340 341 341 341 341 341 341 341 341 341 341 342 342 342 342 342 342
351 350 352 351 351 351 349 350 351 352 350 347 349 353 356 355 346 341 344 345 346 345 345 346 346 347 346 347 346 345 346 346 346 345 346 345 345 345 343 341 339 337 337 338 338 339 339 338 337 336 336 337 338 338 338 336 336 336 337 337 336 336 336 335 335 336 336 336 336 338 339 339 338 338 339 340 341 341 341 342 343 343 343 343 342 341 341 341 341 341 341 342 342 342 342 342 342
353 352 356 356 353 352 350 350 352 353 349 348 354 355 356 354 344 341 344 345 346 345 344 345 346 346 346 346 346 345 346 346 345 346 346 346 346 345 344 342 340 338 338 337 338 338 338 338 337 336 336 337 338 338 336 335 335 335 335 336 336 336 335 335 336 337 338 338 339 340 340 340 340 340 341 342 343 344 344 344 345 345 345 345 344 342 342 342 341 341 341 341 341 341 341 342 342
355 351 355 358 355 353 352 350 352 355 351 349 355 356 355 352 344 342 344 344 346 344 343 344 345 346 346 346 346 346 346 345 346 346 346 346 346 346 344 343 341 340 339 338 338 339 339 338 337 337 337 337 338 337 336 334 333 334 334 335 335 336 336 336 337 338 340 341 342 342 342 342 342 343 343 344 344 345 345 345 345 346 345 346 345 344 343 343 343 342 341 341 341 341 341 341 341
357 353 355 355 354 354 354 352 351 353 353 351 353 356 355 351 345 342 343 344 344 344 343 344 344 345 346 346 346 346 346 346 346 346 347 346 346 346 345 343 342 341 340 338 338 339 339 337 337 338 337 337 337 337 335 334 333 333 333 334 335 336 337 338 338 339 341 343 344 344 344 344 344 345 345 345 345 345 344 344 344 345 345 345 345 344 344 344 344 343 343 342 341 341 340 340 341
355 355 355 354 354 354 354 354 352 352 354 353 354 358 358 353 346 342 342 344 343 343 343 343 344 344 345 345 345 346 345 345 346 346 347 347 346 346 345 343 342 342 341 339 338 339 339 337 337 337 337 337 337 336 335 334 333 332 333 333 335 336 338 338 338 339 340 342 343 343 344 344 345 345 345 345 345 345 343 342 343 344 344 344 344 344 344 344 344 344 345 344 342 341 341 341 342
354 355 354 354 354 354 354 356 355 353 355 355 356 358 357 353 346 341 342 343 342 342 342 343 344 344 344 344 344 345 345 345 345 346 346 346 346 346 344 343 343 342 341 339 339 340 339 338 338 338 338 336 336 336 336 337 336 334 333 334 335 336 337 338 338 339 339 339 341 343 344 345 345 345 345 345 345 344 343 343 342 343 345 345 345 345 344 344 344 345 345 346 344 342 341 341 342
354 354 354 353 354 354 355 356 353 353 356 356 356 357 356 353 347 343 342 342 342 342 342 342 343 343 343 344 344 343 344 344 345 345 345 345 345 345 344 343 343 342 341 340 339 340 341 340 340 340 339 336 336 337 338 339 339 337 336 336 336 337 337 339 339 339 339 339 341 342 344 345 345 345 345 345 344 344 343 343 343 344 346 347 346 345 344 344 345 346 346 347 346 344 342 341 342
353 356 355 353 354 354 356 356 349 350 357 358 357 356 354 353 350 347 343 342 342 341 341 341 342 343 342 343 343 343 343 344 344 345 344 344 345 345 345 344 343 343 342 341 340 340 341 341 341 340 340 338 336 336 337 337 338 338 338 338 338 338 338 339 340 340 340 340 341 342 343 344 345 345 345 345 345 344 343 344 343 344 347 347 346 344 344 345 346 347 347 347 347 345 343 342 342
353 356 356 353 355 355 355 355 349 350 357 358 357 357 353 352 352 349 346 345 343 341 341 341 341 341 342 342 343 342 343 343 343 343 343 344 345 345 345 344 344 344 343 343 342 341 342 342 341 341 340 339 337 336 336 336 337 338 338 339 338 338 338 339 339 340 339 340 340 340 341 343 344 345 345 346 346 345 344 344 343 344 347 348 346 344 344 346 347 348 348 348 347 346 344 343 342
355 355 354 354 356 355 354 353 350 352 358 358 356 356 355 354 354 351 348 347 345 342 341 341 341 341 340 341 342 342 342 342 342 343 343 344 345 345 345 345 346 346 345 343 343 343 343 342 341 341 341 340 338 337 338 338 339 340 340 339 338 337 337 338 338 339 338 338 337 338 339 341 343 344 345 346 347 347 346 345 344 345 348 349 347 346 345 346 348 349 349 348 347 345 344 343 342
356 356 353 354 355 354 354 353 351 352 355 356 356 356 356 357 355 354 351 349 348 345 343 341 340 340 340 341 342 342 342 342 342 342 343 344 345 346 345 345 346 346 346 344 344 344 344 343 341 340 341 340 339 338 340 341 341 341 340 339 338 338 338 340 340 341 340 338 337 337 338 339 342 344 346 346 347 347 346 345 344 345 348 348 347 346 346 347 348 349 349 348 347 345 343 343 343
351 356 353 355 355 353 354 352 350 353 354 354 356 354 355 356 355 355 352 350 350 349 347 345 341 340 340 340 341 342 342 342 342 342 343 344 345 345 345 345 346 346 346 344 343 342 342 343 341 340 340 341 340 339 341 343 342 341 340 340 340 340 340 343 344 344 343 340 338 338 338 338 340 342 345 346 346 347 346 345 344 345 346 346 345 345 346 347 348 349 349 348 347 346 344 343 344
346 352 352 354 354 354 353 351 351 353 353 354 354 350 351 355 354 354 355 354 353 351 349 347 344 341 339 339 340 340 342 342 342 342 342 343 344 344 345 345 346 347 346 344 342 341 341 341 341 340 340 341 341 341 342 343 342 340 340 340 340 339 340 342 344 344 343 341 339 339 339 339 339 340 342 344 344 345 345 344 344 344 344 344 344 345 346 347 348 349 349 348 347 346 345 344 344
342 348 351 353 354 354 352 350 351 352 351 352 352 349 349 353 353 351 353 355 354 352 351 349 346 343 340 339 340 340 341 341 341 342 342 342 343 344 344 345 346 346 346 345 343 343 344 343 341 341 341 341 341 342 344 343 342 340 339 339 339 338 339 342 343 343 343 343 342 342 341 340 340 340 341 341 342 343 345 344 343 344 343 343 344 346 347 348 349 349 349 349 348 347 346 345 345
340 344 351 354 354 354 351 351 353 352 352 352 352 351 349 351 353 350 351 354 354 353 352 351 349 347 342 339 340 340 340 341 341 341 341 342 342 343 343 343 345 346 346 346 345 345 346 345 343 342 341 341 340 341 343 343 342 339 338 338 340 340 341 343 344 345 345 345 345 345 344 343 342 341 341 341 341 343 344 344 344 345 344 344 346 347 349 348 348 349 349 349 349 348 347 346 346
340 345 351 353 353 352 350 352 354 352 352 351 351 351 348 352 356 353 351 352 352 352 352 351 350 349 345 342 340 340 340 341 341 341 341 342 342 342 342 343 344 345 346 346 346 346 346 347 346 344 343 342 341 341 342 343 342 340 338 339 341 342 343 344 345 346 346 346 346 346 346 345 344 342 341 341 342 342 343 344 345 345 344 345 346 348 349 348 348 348 348 348 348 349 348 348 348
343 347 348 347 346 346 346 348 350 349 350 350 350 349 348 352 356 353 352 352 350 350 350 349 350 350 348 344 341 340 340 340 341 341 341 341 342 342 341 343 344 345 346 346 346 346 346 347 347 346 345 342 342 342 342 342 343 342 341 342 343 344 345 345 346 347 347 347 347 347 347 345 343 342 341 341 342 343 344 344 344 345 344 345 347 348 349 348 348 349 348 346 346 348 349 349 348
346 347 344 343 344 345 347 348 348 348 349 348 348 349 347 350 354 353 351 351 349 348 349 349 349 349 349 346 343 341 340 341 340 341 341 341 342 342 342 343 344 345 346 346 346 347 347 347 347 346 346 343 341 340 341 343 343 343 344 345 345 346 347 347 347 347 348 347 348 347 345 343 342 342 341 342 342 343 346 345 343 344 345 344 345 347 349 349 348 349 348 344 343 346 347 348 349
347 348 345 344 346 346 348 348 346 348 349 348 347 349 348 349 353 354 350 349 348 347 347 348 348 349 350 348 346 343 341 341 340 340 341 342 343 344 343 344 345 345 346 346 346 347 347 347 347 347 346 345 341 339 340 341 343 343 344 346 347 348 349 349 348 349 348 347 348 347 344 342 342 342 341 341 342 343 345 344 342 343 345 344 344 346 348 349 349 350 348 344 343 344 345 346 347
347 348 346 347 347 346 348 348 346 347 347 346 349 351 349 347 349 351 350 348 348 347 345 345 345 347 349 349 347 345 343 341 341 341 340 342 343 344 344 344 345 346 346 346 346 347 347 347 347 347 347 345 343 341 340 340 341 342 342 344 346 348 349 349 349 349 348 347 348 347 345 344 343 342 341 341 342 343 344 343 342 343 344 344 344 345 348 349 349 349 348 346 346 346 345 345 345
348 346 345 348 347 346 350 347 343 345 345 346 350 350 349 347 347 350 350 347 346 346 345 345 344 346 348 349 348 346 346 343 341 341 340 341 342 342 343 343 344 345 345 345 346 346 346 347 347 347 347 347 344 342 341 340 339 339 339 341 343 346 348 348 348 348 348 348 348 348 347 346 344 342 340 341 343 344 344 343 342 343 344 344 344 345 346 347 347 348 349 348 349 349 347 345 344
345 345 345 345 346 349 350 347 344 346 347 348 348 349 351 349 347 349 348 345 345 345 346 346 344 345 346 348 349 348 347 345 342 342 341 340 341 341 342 342 342 344 344 345 346 346 346 346 347 347 348 347 346 344 343 342 340 338 337 338 341 344 346 347 348 348 347 348 348 348 348 348 347 345 343 343 344 345 345 344 343 343 343 343 343 344 344 345 345 347 349 349 350 351 349 347 345
338 337 343 342 345 350 347 343 345 347 348 349 347 349 354 353 348 349 348 348 348 345 345 346 343 344 345 347 349 348 348 347 343 342 341 341 341 341 342 342 342 343 344 345 346 346 346 346 347 347 347 348 347 345 343 342 340 338 337 337 338 342 344 347 348 348 347 347 347 348 348 349 348 347 347 346 345 345 344 344 344 343 343 343 343 343 343 344 345 346 347 347 348 349 350 349 347
337 334 344 341 338 347 346 341 343 344 345 347 347 350 355 351 345 348 350 350 350 349 346 344 343 343 345 347 348 348 348 347 345 342 341 341 341 342 342 342 343 343 344 345 345 345 345 346 346 347 348 347 346 344 343 341 339 337 337 337 337 338 341 344 346 347 347 347 347 347 348 348 348 348 348 347 346 346 345 345 345 344 344 343 343 343 344 345 346 346 345 344 345 346 347 348 348
339 339 342 332 326 337 345 342 340 338 340 345 347 351 352 347 342 348 353 351 350 352 349 346 345 344 345 346 347 348 348 348 346 343 342 342 342 342 343 342 343 343 344 344 345 345 345 346 346 348 348 347 344 342 341 339 337 336 336 336 336 337 338 340 343 346 347 346 346 347 347 347 348 348 348 347 347 346 345 346 346 346 346 345 344 343 344 345 346 346 344 343 343 344 344 344 345
333 336 332 325 325 329 332 338 338 336 339 342 343 346 346 345 347 352 355 353 351 351 351 350 347 345 346 346 346 347 347 348 347 345 343 342 342 342 342 343 343 344 344 344 345 345 346 346 346 347 349 347 344 341 339 338 336 335 335 335 335 335 335 337 341 344 346 346 346 347 346 345 346 347 348 347 346 346 346 346 347 348 348 347 346 345 345 345 345 344 344 343 343 343 343 343 343
324 325 321 321 329 329 326 333 335 333 338 339 338 341 342 345 350 353 354 354 353 350 351 352 349 346 346 346 346 347 347 348 348 347 345 343 343 343 342 343 343 343 344 345 345 345 346 346 346 347 349 349 347 344 341 339 338 337 336 335 334 334 334 335 339 342 343 343 344 345 344 344 345 345 346 346 346 345 346 345 346 347 347 347 346 346 346 345 344 344 343 343 343 344 344 343 343
323 320 319 318 323 324 322 324 327 331 340 342 337 335 339 344 348 352 353 353 352 350 348 349 348 347 348 346 346 346 347 348 348 347 347 345 344 343 343 344 344 345 345 345 345 345 346 346 346 347 349 350 349 347 344 342 340 339 338 336 334 333 333 334 337 339 340 340 340 341 341 343 344 344 344 344 344 344 345 345 345 345 346 347 346 346 347 347 346 344 343 343 343 343 343 343 344
324 324 324 320 318 321 321 319 322 329 336 339 337 336 343 347 345 347 351 352 351 350 347 347 348 349 349 348 347 346 347 348 348 348 347 346 345 344 344 344 345 345 346 346 345 346 346 347 347 347 349 349 350 349 346 344 343 342 340 338 335 333 332 334 336 337 337 337 337 337 338 342 343 343 343 343 342 343 345 346 346 346 347 348 348 348 348 348 347 346 344 344 343 343 343 343 343
Wind_Speed
7 5 3 2 3 3 3 3 1 2 3 3 2 0 1 1 3 3 4 5 4 5 5 8 18 13 2 3 5 7 6 4 4 2 4 10 18 18 16 16 15 16 16 15 14 13 12 12 12 11 10 10 9 8 8 7 7 8 9 9 8 8 8 10 11 10 11 12 12 12 12 12 12 13 15 18 17 16 16 16 16 16 16 15 15 15 15 14 15 15 13 14 14 14 14 14 14
5 3 3 2 3 3 2 3 1 2 4 3 1 1 1 2 4 5 7 6 5 8 10 16 16 6 2 8 9 8 6 2 2 6 13 20 21 18 17 16 14 15 14 14 13 12 12 11 11 11 10 9 8 7 7 7 7 7 8 8 8 7 7 9 10 10 12 13 13 13 12 12 12 13 16 17 15 14 15 15 15 15 16 16 15 15 15 14 15 15 14 13 14 13 14 14 13
3 2 2 1 3 2 2 2 2 2 4 3 1 2 0 3 4 5 5 4 11 16 16 17 10 4 5 8 5 3 3 2 7 16 21 24 22 20 18 16 15 14 14 13 12 12 11 10 10 10 9 8 8 7 7 6 6 6 7 7 7 7 6 8 10 10 12 13 13 13 13 12 13 14 16 16 14 13 14 15 15 14 15 15 14 14 15 14 15 15 13 12 12 13 13 13 13
2 1 1 2 1 1 1 2 1 3 4 3 1 2 1 5 4 3 3 8 18 20 19 15 5 3 3 5 4 3 3 4 15 21 23 23 21 21 20 18 16 15 14 12 11 11 10 9 8 8 8 7 8 8 7 6 6 6 6 7 7 7 6 8 9 10 12 13 12 13 13 13 14 15 16 14 13 12 13 14 14 14 14 14 14 14 14 14 14 13 13 12 12 12 12 12 12
2 2 2 2 1 0 1 2 1 3 3 4 2 2 2 3 4 5 6 13 19 19 19 13 4 4 5 6 3 1 5 9 17 20 22 22 20 21 20 19 17 15 13 11 11 10 9 8 7 7 7 7 7 6 6 6 6 6 6 7 7 7 7 8 9 11 13 13 13 14 14 14 15 16 15 13 12 13 13 13 14 14 13 14 14 14 13 13 13 13 13 12 12 12 11 11 11
3 2 2 1 1 0 1 2 2 3 1 4 4 2 2 3 7 10 12 14 15 17 16 10 6 7 8 8 7 5 7 10 17 20 22 23 21 21 19 18 16 14 12 11 11 9 8 7 6 6 6 5 4 4 5 5 6 6 6 6 7 7 7 8 10 11 12 12 13 13 13 14 15 16 14 12 12 13 13 13 13 13 13 13 13 13 13 13 13 12 12 11 11 11 11 11 10
3 3 1 2 1 1 2 3 2 1 0 2 4 4 4 5 11 14 13 11 9 11 11 9 11 10 5 4 7 7 4 8 17 20 21 22 22 20 18 17 15 13 12 11 10 9 7 6 6 5 4 3 3 4 5 6 6 6 6 6 8 8 8 9 10 12 12 12 14 13 12 13 15 16 14 11 11 12 13 13 13 13 13 13 13 13 12 13 13 12 11 11 11 11 11 11 11
3 3 1 2 1 1 2 3 1 1 0 0 3 5 7 10 14 12 7 7 6 7 10 12 11 7 3 2 4 5 6 11 17 19 20 21 21 19 17 15 13 12 11 10 9 8 7 5 5 4 3 2 3 4 5 5 5 6 6 6 7 8 9 9 10 12 12 11 13 13 12 13 14 15 14 12 11 12 13 13 12 12 12 13 13 12 12 12 12 11 11 11 11 11 11 11 10
4 3 1 2 1 2 2 2 1 1 1 1 3 5 11 13 13 10 7 6 7 9 10 10 6 5 4 7 7 5 7 12 16 19 20 20 19 17 16 14 12 10 10 9 8 7 6 5 4 3 3 3 4 5 4 4 5 6 6 6 8 9 10 10 11 11 12 12 13 13 12 13 13 14 13 12 11 11 12 12 12 12 12 12 12 12 12 12 11 11 11 11 11 11 11 10 10
4 4 1 1 2 3 3 1 1 2 1 2 3 9 12 11 11 11 10 8 9 10 7 6 7 10 10 8 6 5 9 13 17 19 19 18 17 16 14 12 10 9 9 9 8 7 6 5 5 4 4 4 4 4 4 4 5 6 6 7 9 10 11 11 11 12 12 13 13 13 12 12 12 12 13 12 11 11 11 12 12 12 12 12 12 12 12 11 10 11 11 10 10 10 10 10 10
4 4 2 2 3 3 3 2 2 2 1 3 4 9 10 13 15 11 11 10 8 11 10 8 10 15 12 6 5 8 12 14 16 18 18 16 15 14 13 12 11 9 8 8 7 7 6 6 5 5 5 4 4 4 5 5 5 6 6 7 8 10 11 11 12 12 13 14 14 14 12 11 11 12 12 12 11 11 11 11 12 12 12 11 11 11 11 11 10 10 10 10 10 10 10 10 10
3 2 2 3 2 1 3 3 4 3 3 5 4 5 10 16 16 10 10 10 11 14 9 8 12 15 8 4 7 12 15 15 15 17 16 15 15 13 12 12 11 9 8 8 7 7 7 6 6 5 5 4 5 5 5 6 6 7 7 8 9 10 11 11 12 12 13 14 14 14 13 12 11 12 12 12 11 11 12 11 11 12 12 11 10 10 11 10 9 9 10 10 10 9 10 10 11
3 1 2 3 1 0 3 3 3 4 4 3 3 7 15 15 14 15 13 11 12 9 4 10 18 14 6 4 11 15 16 15 15 15 16 15 13 12 11 10 10 9 8 7 7 7 7 6 5 5 4 5 5 5 5 5 6 7 8 8 10 10 11 12 13 13 14 14 14 14 13 12 11 12 12 12 12 12 12 12 12 12 12 12 10 10 10 10 8 9 10 9 9 9 9 10 12
3 1 2 2 1 1 3 3 3 5 3 1 4 12 14 8 14 23 20 12 5 5 10 16 18 11 8 8 11 17 16 15 15 15 15 13 11 10 9 9 8 8 8 7 7 7 7 6 5 5 4 4 4 5 5 5 6 7 8 9 9 10 11 12 13 14 15 15 15 14 13 12 12 12 13 13 12 11 12 12 12 12 12 11 10 10 10 9 8 8 9 9 9 8 8 10 13
2 2 2 2 1 1 1 2 3 5 3 1 8 15 10 5 15 22 20 11 5 12 16 15 14 7 8 8 10 20 17 15 15 13 13 11 9 8 8 8 7 7 7 6 6 5 6 6 5 4 3 3 4 5 6 6 6 7 7 8 8 9 9 11 14 15 16 15 15 14 14 13 13 14 14 13 12 11 12 12 11 11 11 11 10 10 9 9 8 8 9 8 8 8 8 11 13
1 2 3 2 2 2 1 1 3 4 2 2 10 15 9 7 14 12 8 10 15 18 12 12 8 2 11 12 14 23 18 15 14 12 12 10 9 8 8 8 7 8 8 6 5 4 4 4 4 3 3 3 4 5 5 6 7 7 8 8 8 8 8 10 13 15 17 16 15 15 14 15 15 14 13 13 12 11 12 11 11 11 11 11 10 10 9 9 9 8 9 9 9 10 10 11 12
1 2 3 2 1 2 1 1 2 2 1 4 12 16 10 6 8 7 6 15 20 13 8 10 2 1 15 13 17 23 17 16 13 12 11 9 9 9 9 8 8 9 8 8 5 4 3 3 3 3 3 3 4 4 5 7 7 8 9 9 9 9 9 10 12 15 17 17 16 15 14 16 16 14 13 12 11 10 10 10 10 10 11 11 11 10 9 9 9 9 10 11 11 11 11 11 11
1 1 2 1 2 2 2 2 1 1 2 5 11 18 16 7 8 12 12 15 17 12 12 10 4 9 15 12 21 22 16 16 12 11 10 9 10 9 10 9 9 10 9 9 6 5 4 3 3 3 4 4 4 5 6 7 8 9 9 10 10 10 10 11 12 13 16 18 17 15 14 15 15 14 12 12 10 10 10 9 10 11 11 11 11 11 11 11 11 12 12 11 11 11 12 11 10
2 1 2 2 3 3 1 2 2 1 3 5 10 18 19 12 13 16 9 9 14 13 13 13 14 15 13 15 22 19 16 15 11 10 9 9 10 10 11 11 11 11 10 9 7 7 5 4 4 4 5 5 6 6 7 7 8 10 11 11 11 11 11 11 11 12 14 17 18 16 14 14 14 13 12 11 9 9 9 10 11 11 12 11 12 12 13 13 13 12 11 10 9 10 11 11 10
2 2 1 2 1 1 1 2 2 2 4 8 10 14 15 15 16 15 10 9 10 9 12 16 18 18 18 20 21 19 17 13 11 10 8 10 10 10 10 11 11 11 10 9 8 7 6 5 5 6 6 6 7 7 8 8 9 10 11 12 12 12 12 11 11 11 12 15 18 16 14 13 13 13 11 10 10 10 11 11 11 12 12 12 12 13 14 13 12 12 11 10 9 9 9 9 9
3 3 1 1 1 1 3 5 1 1 7 11 13 12 11 13 14 16 17 10 2 8 17 19 21 24 23 22 21 20 17 14 13 11 10 10 9 10 9 10 11 11 11 9 8 7 7 7 6 7 8 7 8 9 10 10 10 10 11 12 13 13 12 12 12 12 12 14 16 15 14 13 12 12 12 11 11 11 12 13 12 12 12 12 12 13 14 12 12 11 11 10 9 8 8 7 7
2 2 1 1 3 1 2 8 5 3 11 13 12 11 9 10 11 21 23 8 6 16 21 21 24 27 26 24 23 21 18 17 15 13 11 9 9 10 9 10 12 11 11 9 8 7 7 8 8 8 9 9 9 11 12 12 11 11 12 12 13 13 12 12 12 13 14 15 15 14 13 13 12 12 12 12 12 12 13 13 13 13 12 12 13 13 12 12 11 10 9 8 7 7 6 5 5
1 1 2 1 4 2 2 10 8 6 14 11 8 9 9 10 9 20 20 2 8 21 21 21 22 25 26 24 23 21 20 18 16 14 10 8 8 7 8 10 12 12 11 9 8 7 8 9 9 10 10 10 11 12 13 13 12 12 12 12 12 13 13 13 13 14 15 15 14 13 13 13 12 12 12 12 13 13 14 14 14 13 13 13 13 12 11 10 9 8 7 6 5 4 3 3 3
1 2 3 1 6 7 5 11 9 8 13 9 9 11 8 7 7 16 13 2 8 20 20 21 23 24 24 22 23 21 19 18 16 13 9 6 5 5 7 9 11 12 11 9 8 7 8 9 10 10 11 12 11 12 12 13 13 13 13 13 12 12 12 13 13 13 14 14 14 13 13 13 13 13 14 14 14 15 15 15 14 13 13 13 12 11 10 8 7 6 5 3 3 2 1 1 1
1 2 3 1 4 9 10 11 12 13 13 10 11 10 6 5 8 13 10 5 14 20 21 23 24 25 23 22 22 19 18 18 15 13 10 6 5 6 6 8 11 11 10 10 8 8 8 9 10 11 12 13 12 12 12 14 14 14 13 13 12 12 12 12 13 13 13 13 13 13 13 13 14 14 15 15 15 15 15 14 13 13 12 12 11 9 8 6 5 4 3 2 2 2 1 1 0
2 4 2 2 4 10 13 13 15 15 11 9 9 6 5 6 8 7 8 13 19 21 23 25 26 26 24 22 21 19 18 17 15 13 10 8 7 7 7 8 10 10 10 10 9 9 9 10 10 11 13 13 13 13 13 14 14 14 13 13 13 13 13 12 13 13 13 14 13 14 14 14 15 15 15 15 15 14 14 13 13 13 12 10 9 8 7 6 4 2 1 1 2 2 3 2 2
7 9 6 4 8 9 12 15 15 14 9 7 8 3 4 7 7 3 9 20 23 23 24 26 27 26 25 22 20 18 16 15 14 13 12 10 8 8 8 9 9 10 11 10 10 10 10 10 11 12 13 13 14 14 14 14 14 14 14 13 13 13 14 14 14 15 15 15 15 15 15 15 15 15 15 15 14 13 13 13 12 11 10 9 8 7 7 5 4 2 1 1 2 3 3 3 3
12 11 9 9 12 10 11 13 11 11 7 7 11 5 5 4 4 5 17 26 26 27 27 27 28 26 25 22 20 18 16 15 14 13 12 11 9 9 8 8 9 10 11 11 11 11 11 11 11 12 13 13 14 14 14 14 14 14 13 13 13 14 14 15 15 16 16 16 16 17 16 16 16 15 15 13 12 12 11 11 10 9 7 7 6 7 6 5 4 3 2 2 2 3 3 4 4
9 5 5 7 9 9 8 5 4 6 4 6 13 7 5 1 2 9 23 28 28 29 27 27 27 26 25 23 20 18 17 16 15 13 12 11 9 8 8 8 9 9 11 11 11 12 12 11 12 12 13 13 14 14 13 13 14 14 14 14 14 14 14 15 16 16 16 17 17 17 16 15 15 14 13 12 10 9 9 8 7 6 6 5 5 6 6 5 4 3 3 3 3 3 4 5 6
6 2 2 5 5 4 4 4 4 6 4 5 8 3 3 4 2 14 25 28 29 26 24 26 26 25 25 24 22 19 18 17 15 14 12 11 9 8 8 9 9 9 11 12 12 13 13 13 13 13 13 13 13 13 13 13 14 14 14 15 15 15 15 15 16 16 16 16 16 15 14 13 13 12 11 9 8 8 7 6 6 5 5 5 5 6 6 5 5 4 4 4 4 4 4 6 7
3 1 1 2 3 3 3 3 5 5 2 3 3 2 4 3 4 16 24 28 31 26 23 24 24 25 25 25 23 21 20 18 15 14 13 12 10 8 9 10 11 11 11 12 13 13 13 14 14 14 14 14 13 13 13 14 14 14 15 15 16 16 16 16 15 15 15 15 14 13 12 11 11 10 9 8 7 6 6 5 5 4 4 4 4 5 5 5 5 5 5 5 5 5 5 7 8
1 0 1 2 2 3 0 1 2 2 2 2 3 2 2 2 7 16 23 28 30 26 23 23 24 25 25 26 25 22 21 19 17 15 14 13 11 10 9 11 12 12 12 12 13 14 14 14 15 15 15 14 13 12 13 14 15 15 15 15 16 16 16 16 15 15 15 14 12 11 11 10 10 8 7 6 5 5 5 4 4 4 3 3 3 4 4 5 5 5 5 5 5 6 7 7 7
3 2 1 1 3 4 2 1 2 3 5 2 2 2 2 1 8 17 22 27 26 24 23 23 24 25 26 26 25 24 22 21 20 19 18 15 13 11 10 12 12 12 13 13 13 14 14 15 15 15 15 14 14 14 14 15 16 16 16 16 16 16 16 15 15 15 14 13 12 11 10 10 9 8 7 6 5 4 4 4 3 3 3 3 3 4 4 4 4 4 5 6 6 7 7 7 7
2 2 1 0 2 2 3 2 1 4 5 1 2 2 0 0 10 18 21 25 23 21 22 23 24 25 26 26 25 25 24 23 22 21 20 18 15 12 11 12 13 12 13 13 13 13 14 15 15 15 14 15 15 15 15 15 16 17 16 16 16 16 15 15 15 14 13 12 11 10 9 8 8 7 6 5 4 3 4 4 3 3 3 3 2 2 3 3 2 3 4 6 6 7 7 7 6
4 3 3 2 2 1 2 2 3 5 4 2 2 2 1 1 9 16 19 23 22 21 23 24 24 25 25 25 25 24 24 24 23 21 21 19 17 13 11 13 13 13 13 14 14 14 14 15 15 15 15 15 16 16 16 15 16 16 17 16 16 15 14 14 13 12 12 11 10 8 7 7 6 5 4 4 4 3 3 3 3 3 2 2 1 2 2 2 2 3 4 5 6 7 7 7 7
6 4 4 5 4 1 1 2 2 2 3 4 3 2 2 2 8 13 17 22 21 19 20 21 22 23 24 24 24 24 25 26 24 22 21 20 19 15 12 12 13 14 14 14 15 15 15 15 16 16 16 16 17 17 17 16 16 16 16 15 14 13 12 11 10 9 9 8 8 7 6 6 5 5 4 3 3 3 2 2 3 3 2 1 1 1 2 2 2 3 4 4 5 6 7 7 7
8 5 4 4 3 2 1 4 4 2 0 2 2 2 3 4 6 9 15 19 17 15 15 18 21 22 24 25 24 25 25 26 24 23 22 21 21 18 14 13 14 15 15 16 16 16 16 16 16 17 17 18 18 19 18 17 17 16 16 15 13 12 12 10 9 8 8 8 7 7 6 6 6 5 5 4 3 2 2 1 2 2 1 0 0 1 2 3 2 2 3 3 3 5 6 7 7
6 5 5 3 2 2 2 3 6 3 0 1 2 4 3 2 2 5 11 13 14 16 17 19 22 23 25 26 26 26 25 24 23 23 23 22 23 21 17 16 15 15 15 16 17 17 16 16 17 17 18 19 19 19 18 17 17 16 15 14 13 13 11 10 9 8 8 8 8 8 7 7 6 6 5 3 2 2 1 1 1 2 1 0 1 1 2 2 2 2 2 2 3 3 4 5 7
5 4 5 3 1 3 3 2 3 1 1 1 2 4 3 2 1 1 6 9 12 18 20 21 23 24 25 27 28 28 25 23 24 24 25 24 25 23 20 18 17 15 14 16 17 16 16 17 18 18 18 19 19 19 18 17 16 14 13 12 13 12 11 10 9 8 8 8 8 8 8 7 7 5 4 2 1 1 2 2 2 2 1 1 1 2 2 2 2 3 3 2 2 2 3 4 6
4 4 4 3 4 4 1 2 2 2 2 2 3 3 1 2 2 3 5 6 7 13 19 21 23 25 28 30 30 30 27 25 25 25 26 26 26 26 23 21 19 17 16 17 17 17 17 17 18 19 18 18 19 19 18 16 15 14 13 12 12 11 10 9 9 9 9 9 9 8 7 6 6 5 4 3 2 2 3 3 3 3 3 2 2 3 3 3 3 3 3 3 3 3 3 3 4
2 5 5 4 8 4 3 4 4 3 3 2 4 3 2 3 4 5 6 7 6 8 14 19 22 25 28 29 29 30 30 29 28 27 27 28 28 27 25 23 21 19 17 18 18 17 17 17 17 18 19 19 19 19 18 17 16 16 16 15 14 13 12 11 11 11 10 9 9 8 6 6 5 5 5 5 3 3 3 4 4 4 4 4 3 4 4 4 4 4 3 3 3 3 3 2 2
1 5 7 8 11 5 7 9 6 2 1 2 3 2 3 4 6 7 4 4 7 9 12 17 22 25 27 28 29 30 31 31 30 29 29 30 29 28 27 25 24 21 18 18 18 17 15 16 17 18 18 19 20 20 19 18 18 18 19 18 17 16 15 14 14 12 10 9 8 7 7 6 6 6 6 5 4 4 4 4 4 4 5 4 4 4 5 5 5 4 4 4 4 4 3 3 2
2 4 8 9 9 9 11 12 6 2 3 2 3 3 2 3 8 11 7 6 9 9 10 15 21 24 26 30 31 31 31 32 31 30 31 31 31 29 28 27 25 23 19 19 20 18 15 16 17 17 18 19 19 20 20 19 19 20 20 19 18 17 17 15 14 12 10 8 7 7 7 7 7 7 7 6 5 5 5 5 4 5 5 5 5 5 5 5 5 4 4 4 4 4 3 3 3
3 5 11 12 10 11 11 9 4 2 2 1 1 2 1 3 7 10 9 8 9 10 9 12 17 22 26 30 32 33 33 33 32 32 32 32 32 31 29 28 26 24 21 20 21 20 17 15 16 17 18 18 19 20 20 20 20 20 20 19 18 17 16 14 12 10 9 8 8 8 8 8 8 8 8 8 6 6 6 6 5 6 6 6 6 6 6 6 5 5 4 4 5 5 4 3 3
3 2 9 10 9 8 6 4 3 3 3 1 3 3 1 4 4 5 10 10 11 14 13 11 16 21 26 30 32 34 34 35 35 34 34 34 33 31 29 28 26 24 22 21 20 20 18 16 15 15 17 18 20 21 21 21 21 21 20 20 19 17 15 13 11 10 9 9 9 9 9 10 10 9 9 9 8 7 6 7 7 7 7 7 7 7 6 6 5 5 5 5 6 6 5 4 3
4 10 12 9 10 10 7 4 3 3 2 1 5 6 3 3 3 3 7 10 13 15 12 12 17 22 26 29 32 34 34 35 36 35 35 35 33 31 29 28 27 25 23 21 20 19 19 18 17 16 15 17 20 21 21 21 21 22 21 20 19 17 15 14 13 12 11 10 10 10 10 11 11 10 10 9 8 7 7 7 8 7 7 8 8 7 7 7 6 5 6 6 6 7 7 5 4
12 14 12 10 9 6 4 3 3 3 2 2 7 9 4 3 3 5 8 12 17 15 10 11 16 21 25 28 31 34 35 35 36 35 35 35 33 31 30 29 28 26 25 23 22 20 20 19 18 16 15 15 18 21 21 21 22 23 22 21 19 18 16 15 15 14 13 12 11 11 11 12 12 10 10 10 9 8 8 9 9 8 8 9 9 8 8 8 7 7 7 7 6 7 8 7 7
10 7 7 7 5 4 3 3 3 1 4 3 5 10 6 4 5 4 7 10 11 11 12 14 18 21 24 27 30 33 35 35 35 36 35 35 34 33 32 31 29 28 27 25 23 21 20 19 18 17 16 16 18 19 20 21 22 23 23 22 21 20 18 17 16 15 14 13 11 11 12 12 12 12 11 11 10 10 10 10 10 9 9 9 9 8 9 8 8 8 8 7 6 7 8 8 8
5 6 6 5 3 2 1 1 0 2 4 3 4 9 6 7 7 5 8 9 7 9 15 20 24 25 25 26 29 32 34 35 35 36 36 35 35 35 34 33 31 30 28 25 24 22 21 20 19 18 17 17 19 20 19 20 22 23 24 23 22 21 20 18 17 15 15 14 12 11 12 13 13 13 12 11 10 10 11 11 10 9 9 10 9 9 10 10 9 8 8 7 6 6 7 7 8
6 8 6 4 4 2 1 2 1 2 4 2 6 8 3 4 5 7 9 11 13 16 20 24 29 31 29 28 29 30 32 34 35 35 36 36 36 36 35 34 33 32 29 26 24 22 21 21 20 19 18 18 19 20 20 20 22 24 24 24 22 22 21 19 17 16 15 15 13 12 12 13 13 13 12 11 10 10 12 11 10 10 9 10 10 10 11 11 10 9 8 7 6 7 7 7 7
5 4 4 5 5 4 3 4 2 2 1 1 5 5 3 2 2 5 7 10 12 18 22 24 27 31 31 29 28 29 29 32 33 34 36 37 37 37 36 35 34 32 30 28 26 23 22 21 20 19 19 19 20 21 21 21 22 23 24 24 23 23 22 20 18 17 16 16 14 13 13 13 13 12 11 10 10 11 12 12 11 10 10 10 10 10 10 11 11 10 9 8 7 8 8 8 8
3 0 3 2 4 5 4 3 4 4 2 2 3 3 3 4 3 5 6 8 7 9 18 19 21 26 29 28 28 29 30 30 32 34 36 37 37 37 37 36 35 33 31 29 27 25 22 21 20 19 19 20 21 21 22 22 23 24 24 24 23 23 23 22 20 18 17 16 15 14 13 13 12 11 11 10 10 11 12 12 12 11 11 10 10 10 10 10 10 10 10 9 9 9 9 9 9
2 1 3 3 3 6 5 1 1 4 2 1 2 3 4 2 2 6 8 9 9 2 9 14 18 24 27 28 30 31 32 32 32 34 35 37 37 38 38 37 36 35 33 30 28 25 22 20 20 20 20 20 21 22 22 23 23 24 24 24 24 24 24 23 21 19 18 17 16 15 14 13 12 11 11 11 11 11 11 12 12 11 11 11 11 11 10 10 10 11 11 10 9 10 10 10 10
5 3 5 3 1 4 5 2 3 3 1 3 2 3 4 2 0 7 12 11 10 7 0 8 14 20 25 28 30 32 32 32 32 34 35 36 37 38 39 38 37 35 33 31 28 25 23 21 20 20 20 21 21 23 23 24 24 24 24 24 24 24 24 23 21 20 18 17 17 16 15 14 13 12 12 12 12 12 11 12 12 11 12 12 11 11 11 11 11 12 11 10 10 10 11 11 11
4 5 4 3 2 0 2 3 2 2 1 3 3 3 2 0 2 8 12 12 11 10 5 3 9 16 21 24 27 29 31 31 31 33 34 36 37 38 39 38 37 36 34 31 28 26 25 23 22 21 20 20 21 22 23 24 24 24 24 24 24 24 24 23 22 20 19 18 18 17 16 15 14 14 13 13 13 13 12 12 12 12 12 12 12 12 12 12 12 12 12 11 10 10 11 11 11
4 3 2 2 2 4 3 2 3 3 2 2 3 3 0 1 4 8 10 12 12 10 6 3 7 14 20 22 24 26 28 30 31 32 33 35 36 38 38 38 38 36 35 33 30 29 27 24 23 22 21 20 21 21 22 23 23 23 23 23 23 24 24 24 23 21 20 19 19 18 17 16 16 15 14 14 15 14 13 13 13 13 13 13 13 13 13 13 13 12 12 11 11 11 12 11 11
3 2 1 1 1 2 2 1 1 3 3 2 1 2 1 1 4 7 9 11 11 9 7 5 6 13 18 21 23 24 25 28 29 30 31 32 35 36 37 38 38 37 36 34 33 31 29 27 25 23 22 21 21 21 21 22 22 22 22 23 23 23 24 24 24 22 21 20 19 18 17 17 16 16 15 15 15 15 15 14 14 14 14 13 13 13 13 13 13 13 12 12 11 11 12 12 11
4 2 1 2 2 3 3 1 2 2 3 3 3 2 2 2 4 6 8 8 10 11 4 1 0 5 11 13 16 20 24 26 27 29 29 30 33 35 37 38 38 38 37 36 34 32 31 30 28 25 23 22 22 21 21 20 20 21 21 22 22 23 24 25 24 23 22 21 19 18 17 17 16 15 15 15 15 15 15 15 15 14 14 13 13 13 13 14 14 13 13 13 12 12 12 12 12
Wind_Direction
127 112 79 42 7 358 339 338 71 14 71 85 359 346 344 121 140 90 105 128 113 168 173 150 159 163 172 157 149 114 92 136 165 136 152 151 143 148 152 155 158 155 160 154 154 158 154 156 154 148 138 131 128 126 123 126 126 122 122 126 133 136 136 130 125 125 125 123 120 119 114 108 105 108 114 116 117 120 122 123 123 123 120 116 114 115 116 115 114 112 109 105 103 100 96 93 90
138 113 71 31 338 354 346 353 73 32 68 91 335 190 292 24 112 138 158 160 138 163 154 144 157 164 136 133 122 96 66 47 171 132 132 142 144 149 152 154 156 157 162 157 154 155 155 156 153 146 137 135 134 135 134 136 137 133 133 133 137 139 139 132 127 127 127 125 125 121 114 110 108 114 121 121 120 122 124 124 125 123 119 116 118 121 121 120 115 112 110 106 103 100 95 92 90
136 139 98 10 335 355 334 8 92 98 86 112 299 282 217 124 160 168 167 150 140 149 143 141 147 120 113 111 95 88 61 42 139 134 133 145 149 149 152 153 154 157 156 153 155 155 155 156 152 144 138 142 146 149 146 146 147 144 143 141 141 143 146 134 126 130 131 130 130 122 116 114 113 118 124 124 123 122 124 126 125 121 117 118 122 122 119 117 113 111 111 106 102 98 94 91 89
88 87 28 325 336 340 356 60 117 111 113 144 142 277 201 162 164 101 101 133 143 145 141 140 122 86 107 92 68 74 91 125 141 138 140 148 151 148 151 153 156 156 152 153 157 154 151 150 148 143 145 157 160 155 151 155 153 150 154 153 150 145 147 139 133 136 135 136 133 126 121 119 117 121 127 129 126 123 125 126 124 122 119 120 121 118 116 113 110 110 107 102 99 97 94 89 88
64 41 358 332 356 311 65 86 80 96 142 167 145 234 215 160 123 87 100 129 141 143 142 146 112 83 89 72 48 101 130 143 144 142 142 147 151 151 152 155 157 156 154 154 154 151 145 143 146 152 159 167 164 154 157 166 160 162 166 158 149 141 144 144 145 144 141 141 135 128 125 123 121 124 132 134 128 123 126 127 125 124 120 120 120 118 118 114 111 109 103 99 96 94 92 87 86
46 17 20 32 28 61 75 78 93 83 188 165 143 187 146 132 124 110 110 117 131 139 141 143 123 108 87 58 57 104 133 147 148 145 145 148 153 154 154 156 154 155 155 151 150 146 141 142 151 163 170 171 171 166 170 176 172 175 174 163 156 151 154 155 155 148 144 145 138 131 130 129 126 128 136 139 130 123 125 128 127 124 121 123 123 121 121 117 112 107 101 99 94 91 88 85 84
5 335 25 55 36 26 76 99 117 87 245 160 134 147 143 145 131 118 116 117 121 130 135 135 126 109 81 65 69 80 116 155 150 145 148 150 154 157 155 155 152 154 152 147 145 142 142 143 154 171 176 180 186 182 181 182 183 180 173 173 171 163 164 165 160 150 146 149 141 134 135 135 131 131 137 141 132 123 124 127 127 126 125 125 124 125 122 115 110 105 100 97 94 91 87 84 81
358 338 67 75 58 23 78 92 63 122 218 283 102 142 159 151 135 122 117 118 125 123 125 134 127 100 46 102 87 76 119 149 149 145 149 151 156 157 154 154 152 152 146 141 137 137 144 144 156 169 167 172 181 180 186 189 183 179 174 174 178 170 171 172 162 153 153 156 146 139 142 141 136 135 138 140 133 127 126 127 128 127 127 125 125 126 118 110 107 104 98 95 93 91 86 83 81
6 5 73 75 82 61 75 63 40 100 356 50 86 143 153 146 135 123 108 92 116 114 116 134 125 112 99 87 92 106 133 147 148 145 150 154 156 152 151 151 149 150 143 138 134 136 148 152 157 162 169 178 183 178 185 196 174 173 175 167 179 176 175 174 161 157 155 156 149 144 147 144 141 139 140 141 136 131 130 129 129 128 128 125 124 122 114 109 107 101 96 95 93 90 85 81 83
3 21 48 68 77 90 94 50 67 99 59 71 104 148 150 145 129 119 114 101 117 109 104 128 108 119 116 83 81 117 143 148 149 149 153 153 150 148 148 145 142 148 147 140 138 147 160 160 160 169 182 182 183 180 183 190 165 177 179 165 180 179 176 173 163 159 155 156 152 149 151 145 144 144 145 144 138 132 130 129 128 130 130 126 124 119 112 107 104 100 97 97 92 89 86 81 82
4 17 18 79 78 108 130 106 111 102 82 71 107 150 156 142 122 106 110 105 112 111 113 123 112 116 108 72 86 125 144 151 156 153 151 147 143 145 144 142 141 146 148 144 150 165 168 163 165 173 177 177 185 187 190 178 164 186 186 171 183 181 176 171 163 160 156 158 154 151 152 148 148 148 144 144 139 132 131 131 130 133 130 125 121 115 111 108 105 101 98 95 90 88 86 84 81
19 353 14 92 71 117 142 124 125 94 83 106 126 169 161 141 124 117 117 111 117 116 116 132 134 126 97 49 117 139 149 155 161 151 144 141 139 140 140 141 138 142 144 149 166 172 166 161 164 167 168 183 197 198 197 182 173 189 186 177 182 181 178 167 160 160 156 157 153 151 153 151 152 148 142 141 138 135 134 133 133 134 128 122 119 115 115 115 110 104 100 98 93 90 85 85 85
39 334 53 89 333 109 118 121 136 102 95 124 168 171 157 146 136 136 120 111 123 117 114 138 140 129 89 100 136 148 155 161 159 147 142 138 137 134 134 134 131 138 141 155 173 169 161 158 163 168 172 188 200 204 202 190 182 188 184 178 181 181 177 163 154 157 157 156 152 151 153 152 153 147 141 139 137 138 135 134 134 133 128 123 121 119 119 119 114 105 102 99 95 93 84 82 86
32 10 85 101 307 96 111 129 153 125 125 217 154 158 159 152 146 141 127 113 95 116 132 140 141 125 112 123 149 160 161 164 153 144 145 141 140 134 128 128 127 136 141 162 176 164 154 151 162 166 178 192 195 209 208 192 185 188 183 176 181 181 175 160 151 153 154 153 150 150 151 150 150 146 140 137 136 137 133 133 134 130 126 121 122 123 123 121 115 107 101 96 94 94 88 88 89
23 17 80 111 84 94 119 150 153 134 155 202 147 154 147 129 148 140 131 122 92 132 132 140 139 117 153 158 168 168 167 166 153 147 150 147 149 140 133 129 130 138 144 167 175 159 143 145 159 152 166 187 197 213 204 183 182 187 183 177 180 180 175 159 148 148 149 150 151 150 148 146 147 145 141 136 134 133 132 134 132 126 122 120 123 126 124 119 114 109 102 96 95 97 98 99 92
14 14 63 88 112 138 196 157 128 124 150 157 152 151 114 106 141 124 122 126 125 136 129 146 147 28 174 168 168 169 169 167 158 156 158 156 156 146 142 138 140 144 149 167 174 159 135 143 158 147 153 169 197 210 191 173 174 179 178 175 174 175 171 156 147 147 148 150 152 150 148 146 146 145 141 135 130 130 134 135 130 124 123 124 127 124 119 117 115 111 107 106 103 100 103 104 94
345 16 56 84 142 153 204 146 123 131 124 135 153 148 119 113 128 100 120 126 127 136 126 148 203 216 168 165 165 167 167 168 165 165 165 163 161 154 152 150 152 151 154 166 171 159 140 150 161 156 152 156 182 185 173 164 163 167 166 165 165 169 162 151 150 146 145 147 149 150 149 147 144 144 139 131 128 132 137 134 128 125 126 128 126 121 117 116 115 114 113 113 108 100 102 103 95
104 42 84 130 162 173 234 152 152 266 135 143 161 147 133 135 122 117 123 117 119 117 115 129 104 142 161 162 163 165 166 168 169 169 171 171 168 164 160 160 160 158 160 165 167 157 148 157 155 148 140 142 156 157 160 153 150 153 152 157 158 161 154 147 147 141 143 145 144 146 147 144 141 140 135 130 132 136 138 133 127 127 129 129 126 122 119 119 119 118 116 112 105 99 101 102 95
147 75 100 214 182 171 250 103 47 337 139 137 153 148 140 142 137 133 130 116 119 109 106 118 116 131 151 159 165 170 168 168 172 173 177 176 174 173 169 165 161 161 163 163 161 154 147 149 145 138 133 134 141 149 154 142 143 145 145 151 150 150 147 143 142 142 145 140 138 143 143 143 140 135 130 130 133 134 136 134 129 130 132 129 126 123 123 122 120 117 113 106 100 96 98 96 90
183 124 134 246 184 159 259 128 55 19 141 129 133 143 136 140 146 143 137 124 123 127 132 130 130 140 151 161 170 175 173 174 174 175 178 178 180 181 174 163 159 160 160 159 158 153 147 145 142 138 131 130 134 141 147 139 140 141 141 144 142 142 143 142 142 142 141 132 133 137 137 141 140 132 129 133 134 134 134 132 129 130 131 128 125 125 126 122 117 113 108 104 100 95 93 89 84
174 158 194 233 144 221 223 171 159 48 142 131 128 133 125 139 150 145 137 121 125 174 163 156 153 155 158 166 174 178 180 180 177 179 177 178 180 178 171 159 156 158 158 158 158 153 149 145 142 136 130 129 131 136 141 138 137 137 137 138 138 139 140 141 139 136 133 127 129 132 133 138 137 132 133 136 134 131 128 126 128 131 131 128 127 129 127 122 117 115 110 107 103 95 89 83 75
145 160 129 132 159 203 221 171 158 130 142 125 119 127 129 143 150 155 150 136 203 187 174 170 166 163 164 169 175 180 183 183 181 178 175 175 174 172 166 159 158 158 160 160 156 152 149 144 139 133 129 131 132 135 137 137 138 135 133 134 136 136 135 136 135 132 131 131 132 133 135 136 134 132 133 134 132 129 126 126 130 132 132 129 130 130 127 124 122 119 115 111 104 97 88 75 61
149 135 137 168 192 216 232 173 159 141 142 120 111 123 128 138 148 167 162 114 197 181 174 171 169 167 165 168 175 180 184 186 184 181 180 178 175 171 161 160 162 160 159 158 154 150 146 141 137 131 130 134 134 135 136 136 137 133 131 131 131 131 131 131 131 131 131 132 132 132 134 133 129 129 131 132 131 129 127 127 129 129 129 129 131 130 129 127 126 122 116 110 101 94 84 63 42
174 142 158 224 223 218 207 173 166 148 138 119 116 117 106 119 145 176 177 33 169 172 171 170 167 166 166 169 176 181 186 188 188 188 187 186 178 165 160 162 163 161 160 157 153 148 142 136 134 132 133 135 135 137 136 135 135 133 132 130 129 129 129 129 128 129 129 129 129 130 131 129 129 131 133 133 131 129 128 129 129 129 130 131 132 132 132 132 129 122 111 101 83 63 59 32 14
195 129 142 256 231 195 176 160 152 135 127 125 122 112 89 95 137 175 187 148 158 167 169 168 165 166 169 173 177 182 187 189 194 193 187 188 180 167 167 167 165 163 161 158 152 149 141 135 133 133 135 136 137 137 135 134 133 132 130 129 129 130 130 128 127 127 126 127 129 132 131 130 132 134 134 133 131 131 132 133 132 133 135 136 138 139 140 139 134 122 105 77 25 2 354 326 332
178 96 87 220 171 156 151 140 139 130 120 129 124 98 81 106 130 167 183 158 160 165 165 166 166 168 172 177 181 183 187 190 195 195 188 185 181 177 177 174 172 164 161 159 151 148 141 136 134 135 137 136 137 137 136 134 132 131 130 129 132 132 131 129 129 128 126 128 131 131 130 131 134 135 135 134 134 135 136 136 135 136 137 139 143 149 152 152 149 141 120 28 349 342 337 330 347
127 95 64 98 112 118 125 122 133 131 108 107 121 86 45 120 138 160 168 160 161 162 161 166 167 170 175 180 184 185 187 190 193 195 191 190 189 184 177 177 178 169 164 160 152 149 143 139 138 139 139 138 138 138 138 136 134 134 133 133 135 134 133 133 132 131 129 130 130 130 130 132 134 135 135 135 136 137 139 139 139 138 136 139 145 154 160 168 176 185 198 282 324 327 334 335 346
120 104 72 77 87 74 88 107 136 136 96 67 90 60 355 114 160 190 162 161 164 162 162 168 169 172 177 182 186 188 189 190 194 197 195 195 190 182 176 175 178 171 163 159 154 151 146 142 143 143 141 141 140 140 141 141 140 139 137 138 138 136 135 134 133 132 131 131 130 131 130 131 133 135 137 138 139 141 143 145 144 141 141 145 151 160 169 181 192 204 219 265 305 321 336 342 351
116 101 86 92 83 58 52 69 147 139 96 81 89 64 332 9 233 181 160 161 164 161 162 169 172 173 179 185 189 191 192 193 198 201 202 199 190 183 175 170 177 171 162 161 157 154 151 148 148 146 144 144 143 143 144 145 144 142 141 142 140 137 135 134 133 131 131 132 132 131 129 131 135 139 141 143 146 148 151 151 149 151 160 168 172 176 179 187 198 212 235 265 292 312 328 337 345
104 54 95 109 83 59 1 355 125 118 79 96 102 104 271 303 224 164 160 161 160 158 162 169 173 175 180 188 191 194 196 199 204 204 205 203 195 189 179 176 179 172 168 167 161 156 155 154 152 148 146 146 145 145 145 144 144 143 143 142 139 136 134 133 133 131 131 132 132 131 130 134 138 142 146 148 150 150 150 149 154 165 175 184 190 191 193 197 204 221 240 260 281 299 315 328 333
105 5 38 103 99 108 321 336 113 113 77 67 81 145 220 271 165 159 162 163 161 160 164 170 174 178 183 189 193 198 200 205 211 208 209 210 202 194 186 182 179 176 176 173 165 158 157 158 155 151 149 148 146 146 146 144 144 142 142 140 137 136 135 135 134 133 132 132 133 134 135 137 141 145 149 152 151 148 147 148 158 174 182 190 203 206 209 212 216 229 239 254 273 292 309 320 325
51 35 12 357 94 116 297 309 68 100 123 57 50 145 209 243 164 163 165 166 166 165 168 173 176 180 185 191 195 199 204 210 215 218 219 217 212 202 191 185 181 180 180 177 172 165 161 161 158 155 154 152 150 150 149 147 145 144 142 141 139 138 138 138 139 138 136 135 136 138 141 144 146 148 149 148 146 146 150 156 167 178 178 186 207 212 214 218 225 234 241 251 266 286 300 307 314
349 69 94 340 111 126 158 135 14 96 123 66 48 154 184 173 165 166 168 170 169 169 173 177 179 183 187 190 195 200 206 211 216 223 225 224 220 211 196 185 182 181 181 181 178 171 166 164 162 160 158 156 154 152 152 150 149 148 146 145 144 144 144 145 146 147 145 145 146 147 150 153 152 151 149 147 146 148 152 158 165 168 172 181 196 203 210 219 229 235 246 257 266 281 291 296 304
312 67 80 300 119 125 140 115 91 136 132 78 63 113 222 185 160 166 173 174 172 173 178 183 186 187 190 192 194 199 206 212 217 221 224 226 221 214 202 187 183 182 182 183 180 174 169 166 164 162 160 159 156 154 153 152 152 153 153 152 152 152 153 154 156 156 158 159 159 159 159 158 157 154 152 153 153 152 153 156 163 171 175 178 183 198 211 221 236 248 257 265 269 278 284 288 295
184 159 127 147 144 121 134 131 165 150 124 121 115 106 19 15 152 164 176 177 177 182 184 188 191 193 196 197 197 202 208 214 219 219 221 224 217 211 202 188 185 183 181 183 182 177 172 169 167 166 165 163 158 156 156 155 156 158 160 160 161 163 164 165 165 166 170 170 168 166 163 160 160 159 160 160 154 152 154 158 165 168 163 163 185 217 224 228 248 260 263 268 273 277 279 283 287
152 144 121 142 148 118 128 98 119 150 112 136 166 146 135 149 152 162 176 181 186 189 188 191 195 200 203 203 203 204 210 215 219 220 220 221 212 203 196 189 185 184 184 183 183 181 178 174 172 171 170 168 164 162 162 163 164 164 166 168 169 171 174 174 170 171 177 179 178 174 173 176 176 175 180 173 157 146 149 153 156 153 139 141 209 224 214 214 234 251 258 265 274 275 275 280 283
116 97 97 123 116 89 81 105 135 206 257 131 160 129 145 169 155 157 171 183 193 192 192 196 199 205 207 208 208 206 212 217 219 221 220 216 206 199 194 190 185 185 187 187 186 185 183 180 178 175 174 174 173 170 170 171 173 173 173 173 174 176 178 177 174 174 178 183 190 188 187 195 192 183 183 178 161 149 152 156 155 148 132 116 245 204 195 203 219 244 256 265 274 276 277 280 281
106 103 114 97 67 107 77 114 153 204 346 100 119 131 164 200 162 151 164 182 200 197 196 200 203 209 211 211 211 211 213 215 217 219 217 211 203 198 197 194 189 188 190 192 191 188 185 185 182 180 179 179 179 177 177 177 178 181 179 176 175 177 178 177 176 176 178 186 194 195 196 201 195 182 172 160 152 174 197 238 176 157 160 245 281 226 211 219 231 252 264 274 271 268 276 280 279
99 96 123 121 119 119 70 92 139 347 43 135 135 148 178 246 270 224 178 186 204 206 205 206 207 210 213 213 213 213 211 209 212 214 214 209 203 200 200 199 196 194 195 196 194 192 191 188 185 185 184 184 183 183 182 180 182 184 182 179 175 175 176 174 175 178 185 194 197 197 198 198 193 181 168 155 167 231 248 253 208 175 179 214 250 243 235 231 237 251 257 262 252 239 260 273 277
109 120 136 159 186 163 98 179 154 41 47 115 127 138 220 293 299 287 243 223 217 213 214 216 215 216 218 217 215 214 211 208 208 210 212 210 204 202 203 203 201 198 199 198 196 196 197 193 189 190 188 187 187 186 184 181 182 180 176 174 172 172 172 172 176 183 192 199 199 200 197 194 195 191 192 199 220 253 248 235 218 201 200 220 249 243 231 224 231 245 246 249 244 233 242 263 283
165 166 160 173 194 179 94 150 141 57 26 49 107 86 306 230 221 252 254 251 248 233 221 217 219 221 223 221 218 215 214 213 209 207 209 210 208 206 206 206 204 201 201 199 198 199 202 200 196 194 192 191 191 190 185 182 182 178 173 173 175 177 178 180 184 189 196 198 199 201 200 202 207 207 210 215 236 260 242 228 225 218 216 228 246 238 227 220 225 237 243 249 248 242 243 261 301
284 209 190 181 184 148 105 136 135 97 253 246 142 138 266 210 209 227 226 236 241 240 227 216 215 218 221 221 219 216 215 215 214 211 209 211 212 209 208 208 206 205 205 201 199 198 202 205 203 201 198 195 196 193 188 186 186 183 181 181 183 185 186 190 192 195 199 199 198 201 203 209 213 218 223 225 242 257 243 232 232 231 226 223 225 228 224 217 216 224 236 246 250 249 247 260 287
302 232 174 163 162 132 133 149 143 156 196 233 187 182 261 234 219 218 203 209 227 228 225 218 213 211 214 217 218 215 213 212 213 213 212 211 212 211 210 209 208 210 208 203 201 199 200 204 206 207 206 203 201 196 191 191 192 191 191 190 191 192 193 196 196 198 201 203 204 207 210 213 215 223 228 233 243 246 243 240 236 235 231 224 223 223 220 216 212 215 224 234 244 247 243 251 270
257 230 152 151 155 144 152 151 127 129 114 46 194 159 354 279 234 212 192 204 229 228 228 223 212 208 209 213 215 214 212 210 209 210 211 212 212 214 213 211 211 212 209 206 204 203 202 203 205 207 209 209 206 201 197 197 198 197 197 197 198 200 200 200 201 203 206 209 214 220 225 225 223 225 226 231 234 233 239 243 240 235 231 232 230 225 223 222 219 219 219 224 234 239 236 241 260
254 199 130 140 134 119 127 113 81 81 74 38 214 175 198 278 267 201 184 201 228 227 223 220 212 208 207 208 211 212 212 211 210 210 211 213 214 217 218 216 214 212 210 210 209 207 206 205 205 205 207 210 210 207 203 202 203 202 202 203 205 207 208 210 215 221 222 221 222 226 232 231 226 224 224 226 226 225 232 238 240 237 233 234 231 227 232 235 233 230 228 230 233 237 235 238 257
114 101 87 80 76 69 66 55 40 61 62 215 196 188 212 271 265 173 172 203 225 225 218 216 214 209 207 206 206 209 210 210 210 211 213 215 218 220 220 218 216 214 213 214 213 210 208 208 208 207 208 209 211 210 207 206 207 207 208 209 211 214 218 221 226 230 231 230 228 227 227 227 225 223 223 226 225 224 228 231 234 237 236 236 234 234 240 244 245 244 245 245 242 241 239 242 256
111 97 83 71 58 43 42 37 43 51 303 232 182 188 203 303 257 183 181 206 216 214 204 209 217 214 210 207 204 205 208 208 209 210 213 216 219 219 219 218 217 216 215 215 214 213 212 212 211 210 210 210 211 213 212 211 211 211 212 213 216 220 224 227 229 230 230 230 230 228 223 221 224 226 224 227 227 226 232 231 229 232 234 235 237 241 243 247 249 252 257 260 254 248 244 246 253
113 103 111 92 51 5 7 12 40 84 258 265 184 179 181 260 257 204 213 232 225 207 198 200 209 213 211 207 205 204 206 208 208 210 212 213 213 213 214 216 217 216 216 216 215 215 215 215 214 213 211 210 211 215 217 218 218 217 216 216 218 220 223 226 228 229 230 230 231 229 223 220 224 225 223 226 227 226 232 233 229 230 231 234 238 239 238 242 248 256 264 267 266 258 250 251 255
105 119 124 100 69 31 7 322 328 199 240 262 159 156 179 242 255 259 255 259 248 213 206 204 203 206 208 207 204 203 204 207 209 210 211 211 210 211 213 215 216 217 219 219 218 217 217 217 217 217 215 212 211 215 220 223 224 223 221 220 220 220 221 225 229 231 232 233 233 228 226 226 226 225 225 227 229 229 232 232 231 231 232 236 239 237 236 240 249 258 265 269 274 271 266 265 265
145 146 139 122 115 103 192 238 270 252 270 279 152 156 202 266 273 274 259 252 239 220 212 210 205 202 203 205 205 202 202 205 209 211 211 211 212 213 215 216 217 219 221 221 220 220 220 219 219 221 222 219 216 217 221 225 228 228 226 224 223 223 223 227 230 231 233 237 236 232 233 235 234 232 230 230 229 231 232 232 231 230 232 238 241 241 243 245 251 257 261 264 268 270 273 275 274
177 176 139 144 155 152 180 201 188 191 292 48 133 162 201 208 271 289 284 285 260 224 212 210 207 204 201 202 204 202 201 203 208 210 211 213 215 216 216 217 219 221 221 222 223 223 223 222 222 224 226 225 223 222 224 227 229 230 229 227 227 227 227 229 232 233 235 240 241 240 238 238 239 240 239 236 231 229 232 231 230 232 235 241 244 246 249 251 254 257 259 260 259 263 268 273 275
222 238 105 163 187 149 137 174 157 136 110 106 158 215 225 204 270 339 349 339 320 222 202 196 198 200 197 196 200 202 202 202 205 208 210 213 216 217 217 218 220 221 222 223 224 224 225 225 224 226 229 230 229 227 227 230 231 231 230 228 228 230 231 232 234 236 237 241 245 247 245 243 244 244 243 241 235 233 235 233 232 234 237 241 244 247 250 253 255 258 259 257 257 260 261 266 272
159 135 182 223 185 121 112 133 77 92 131 212 205 251 303 290 300 351 6 12 8 345 185 178 184 188 190 194 198 201 201 201 204 208 210 212 214 216 218 219 220 221 221 223 225 226 228 228 227 227 229 230 230 230 230 232 232 231 230 230 230 231 233 234 236 238 240 243 247 249 251 250 247 246 245 243 239 238 239 237 235 237 240 242 243 244 248 249 251 255 256 255 255 258 260 261 265
132 176 209 200 85 84 100 105 27 51 191 263 232 235 308 345 240 337 349 360 359 350 185 169 175 180 188 195 198 200 201 201 204 208 211 213 214 215 217 219 222 223 223 224 226 228 230 231 231 229 229 228 228 229 230 231 232 231 231 231 231 233 235 237 237 240 243 245 247 250 254 254 250 249 248 245 242 241 241 240 237 238 243 246 244 244 245 245 247 251 253 253 252 255 260 260 262
134 168 174 123 112 203 81 112 131 104 220 279 285 271 286 71 320 330 336 338 337 329 312 188 176 182 190 197 199 201 201 200 202 205 208 211 214 216 218 220 222 224 225 226 228 229 230 232 233 233 233 232 231 231 231 232 232 232 233 233 233 235 236 237 238 240 243 246 247 250 254 254 251 249 249 248 247 246 246 243 240 240 243 247 248 246 246 246 247 250 253 254 253 255 259 260 261
29 89 115 83 127 171 158 134 150 149 172 240 303 318 192 134 326 328 328 327 327 316 291 235 193 191 193 198 200 201 201 200 201 203 207 211 214 218 220 221 223 224 226 228 229 229 230 232 233 233 233 233 232 232 232 234 234 233 234 233 233 235 235 236 237 238 242 246 249 252 253 253 251 250 251 251 251 251 251 248 246 245 244 246 248 248 249 250 251 254 256 256 256 258 262 263 264
27 38 252 250 79 126 149 123 106 132 156 187 210 288 270 12 335 327 328 329 331 317 277 239 215 201 198 201 202 202 203 202 202 204 207 211 214 217 219 221 223 223 224 226 229 231 232 234 234 233 232 231 231 232 232 234 235 234 234 234 233 234 234 234 235 237 241 245 249 253 254 254 253 251 251 253 254 254 254 253 251 250 250 249 248 249 251 254 256 258 260 260 259 260 265 270 270
135 143 244 191 152 121 126 232 301 99 123 164 164 204 273 356 354 332 333 340 351 347 319 211 218 200 194 196 198 203 205 204 205 207 209 212 213 215 217 219 221 222 223 225 227 231 234 236 236 234 233 232 232 233 233 234 235 236 236 235 234 234 233 234 236 237 240 243 247 252 254 255 255 252 251 253 254 255 255 256 255 254 254 253 252 252 252 255 259 261 262 262 261 261 264 269 271